Regional Weather Roundup
Issued by NWS Jackson, KY

Current Version | Previous Version | Text Only | Print | Product List | Glossary On
Versions: 1 2 3 4 5 6 7 8 9 10 11 12 13 14 15 16 17 18 19 20 21 22 23 24 25 26 27 28 29 30 31 32 33 34 35 36 37 38 39 40 41 42 43 44 45 46 47 48 49 50
000
ASUS43 KJKL 251110
RWRJKL

EAST KENTUCKY HOURLY WEATHER ROUNDUP
NATIONAL WEATHER SERVICE JACKSON KY
700 AM EDT SUN JUN 25 2017

NOTE: "FAIR" INDICATES FEW OR NO CLOUDS BELOW 12,000 FEET WITH
NO SIGNIFICANT WEATHER AND/OR OBSTRUCTIONS TO VISIBILITY.

* THESE REPORTS ARE NOT UNDER NWS QUALITY CONTROL AND MAY NOT
  REPORT WEATHER SUCH AS PRECIPITATION AND FOG.

KYZ079-080-083-085-087-088-110-112-115-119-120-251200
...EASTERN KENTUCKY...

CITY           SKY/WX    TMP DP  RH WIND       PRES   REMARKS
JACKSON        CLEAR     60  55  83 CALM      30.17R
LONDON         PTCLDY    58  56  93 CALM      30.19R
SOMERSET*      CLEAR     55  55 100 CALM      30.21R
MONTICELLO*    PTCLDY    57  56  96 MISG      30.22R
WILLIAMSBURG*  MOSUNNY   57  57 100 CALM      30.19R
MIDDLESBORO*   MOCLDY    58  58 100 CALM      30.19R
HARLAN APT*    CLOUDY    57  55  94 CALM      30.19R VSB<1/4
PIKE CO APT*   MOCLDY    61  58  90 W5        30.17R
BIG SANDY APT* PTSUNNY   62  57  83 SW3       30.17R
MOREHEAD APT*  SUNNY     57  55  94 CALM      30.18R FOG
$$

KYZ035-036-041-042-044-050-067-078-099-251200
...CENTRAL KENTUCKY...

CITY           SKY/WX    TMP DP  RH WIND       PRES   REMARKS
MT STERLING*   CLEAR     54  54 100 CALM      30.19R
FLEMING/MASON* CLEAR     57  55  92 SW5       30.17R
DANVILLE*      CLEAR     54  52  94 CALM      30.20R
LEXINGTON      CLEAR     57  53  86 CALM      30.18R
FRANKFORT      CLEAR     55  51  86 CALM      30.16R
LOUISVILLE     PTCLDY    60  54  80 SW3       30.17R
LEBANON*         N/A    N/A N/A N/A MISG        N/A
GLASGOW*       CLEAR    N/A N/A N/A CALM      30.20R
BOWLING GREEN  CLEAR     58  56  93 CALM      30.20R
$$

KYZ091>093-OHZ055-061-077-WVZ005-015-034-035-042-251200
...SOUTHERN OHIO/WEST VIRGINIA...

CITY           SKY/WX    TMP DP  RH WIND       PRES   REMARKS
COVINGTON      PTCLDY    54  52  93 SW3       30.14R
COLUMBUS       CLEAR     59  51  75 S3        30.09R
DAYTON         CLEAR     56  48  74 SW9       30.12R
WILMINGTON     CLEAR     56  52  86 SW5       30.13R
HUNTINGTON     MOCLDY    59  57  93 SW6       30.14R
CHARLESTON     MOCLDY    62  60  93 CALM      30.13R
PINEVILLE*     CLOUDY    59  58  97 MISG      30.21R FOG
BECKLEY        PTCLDY    60  54  80 CALM      30.17R
BLUEFIELD      CLOUDY    59  55  87 W3        30.19R
LOGAN CO APT*    N/A     61  57  88 CALM      30.16R
$$

VAZ002-007-008-TNZ017-027-036-066-071-251200
...SOUTHWEST VIRGINIA/EAST TENNESSEE...

CITY           SKY/WX    TMP DP  RH WIND       PRES   REMARKS
WISE*          CLOUDY    59  54  82 CALM      30.22R
JONESVILLE*      N/A     59  59 100 CALM      30.19R
ABINGDON*      MOCLDY    66  58  74 N6        30.17S
BRISTOL        MOCLDY    64  61  90 CALM      30.16R
MORRISTOWN*    MOSUNNY   63  61  94 CALM      30.16R
SEVIERVILLE*   CLOUDY    64  61  88 CALM      30.16R
KNOXVILLE      CLOUDY    66  58  75 N5        30.16R
LAFOLLETTE*    SUNNY     61  55  82 CALM      30.21R
OAK RIDGE      CLOUDY    63  59  87 CALM      30.18R
CROSSVILLE     MOCLDY    58  53  84 CALM      30.22R
NASHVILLE      CLOUDY    62  57  83 CALM      30.21R
$$

...KEY TO REMARKS...
VSB - VISIBILITY IN MILES
WCI - WIND CHILL INDEX
HX  - HEAT INDEX

$$



USA.gov is the U.S. government's official web portal to all federal, state and local government web resources and services.